AirNav   SIMCOM
 
 341 users online  

4TN5 Tommy's Field Airport
Greenville, Tennessee, USA


FAA INFORMATION EFFECTIVE 09 NOVEMBER 2017

Location

FAA Identifier: 4TN5
Lat/Long: 36-09-03.0000N / 082-37-57.0000W
36-09.050000N / 082-37.950000W
36.1508333 / -82.6325000
(estimated)
Elevation: 1561 ft. / 476 m (estimated)
Variation: 07W ()
From city: 9 miles E of GREENVILLE, TN
Time zone: UTC -5 (UTC -4 during Daylight Saving Time)
Zip code: 37641

Airport Operations

Airport use: Private use. Permission required prior to landing
Activation date: 01/2016
Control tower: no
ARTCC: ATLANTA CENTER
FSS: NASHVILLE FLIGHT SERVICE STATION
Attendance: 
Segmented circle: no

Airport Communications

WX AWOS-3 at GCY (9 nm W): 128.425 (423-639-5081)

Nearby radio navigation aids

VOR radial/distance  VOR name  Freq  Var
SOTr047/29.7SNOWBIRD VORTAC108.8004W
HMVr239/29.8HOLSTON MOUNTAIN VORTAC114.6004W

 
NDB name  Hdg/Dist  Freq  Var  ID
DULANEY093/12.526307WDYQ -.. -.-- --.-
ROGERSVILLE153/22.032907WRVN .-. ...- -.
HEMLOCK272/36.532002WBAR -... .- .-.

Airport Services

Runway Information

Runway 9/27

Dimensions: 500 x 70 ft. / 152 x 21 m
Surface: turf
RUNWAY 9  RUNWAY 27
Traffic pattern: leftleft

Airport Ownership and Management from official FAA records

Ownership: Privately-owned
Owner: TOMMY HENSLEY
156 ANDREW JENNINGS RD
CHUCKY, TN 37641
Phone 423 278 6068

Airport Operational Statistics

Aircraft based on the field: 1
Single engine airplanes: 1
    

Instrument Procedures

There are no published instrument procedures at 4TN5.

Some nearby airports with instrument procedures:

KGCY - Greeneville-Greene County Municipal Airport (9 nm W)
KRVN - Hawkins County Airport (22 nm NW)
KTRI - Tri-Cities Airport (22 nm NE)
0A9 - Elizabethton Municipal Airport (26 nm NE)
KMOR - Moore-Murrell Airport (36 nm W)
 
Loc | Ops | Rwys | IFR | FBO | Links
Com | Nav | Svcs | Stats | Notes


 
Aerial photo
No photo
 
Airport distance calculator
Flying to Tommy's Field Airport? Find the distance to fly.

From to 4TN5

Sunrise and sunset
Times for 25-Nov-2017
 Local
(UTC-5)
 Zulu
(UTC)
Morning civil twilight06:5011:50
Sunrise07:1812:18
Sunset17:1722:17
Evening civil twilight17:4522:45

Current date and time
Zulu (UTC)  25-Nov-2017 08:19:01
Local (UTC-5)  25-Nov-2017 03:19:01
 
METAR
KTRI 
23nm NE 
250753Z 00000KT 10SM FEW200 00/00 A2994 RMK AO2 SLP129 T00000000
K0A9 
26nm NE 
250755Z AUTO 00000KT 10SM CLR 02/01 A2995 RMK A01
7A8 
33nm E 
SuperAWOS
250755Z AUTO 00000KT 10SM A2999
KMOR 
36nm W 
250755Z AUTO 00000KT 10SM CLR 03/02 A2992 RMK A01
K0VG 
41nm NW 
250750Z AUTO 00000KT 10SM CLR 00/M01 A2995 RMK AO2
KVJI 
43nm NE 
250755Z AUTO 00000KT 10SM CLR 02/00 A2993 RMK AO2 T00241001
KAVL 
43nm S 
250754Z AUTO 00000KT 10SM CLR 01/00 A2994 RMK AO2 SLP134 T00110000
TAF
KTRI 
23nm NE 
250520Z 2506/2606 00000KT P6SM SCT250 FM251000 00000KT 4SM BR SCT002 FM251300 23003KT P6SM SCT150 BKN250 FM251700 25010KT P6SM SCT060 BKN100 FM252100 30007KT P6SM BKN045
NOTAMs
Click for the latest NOTAMs
NOTAMs are issued by the DoD/FAA and will open in a separate window not controlled by AirNav.

 

 
 

Would you like to see your business listed on this page?

 If your business provides an interesting product or service to pilots, flight crews, aircraft, or users of the Tommy's Field Airport, you should consider listing it here.  To start the listing process, click on the button below
 
Add a business
 

Other Pages about Tommy's Field Airport

Update a link
 
Copyright © AirNav, LLC. All rights reserved. Privacy Policy  Contact